{"data":{"norad_id":66364,"intl_designator":"2025-254S","name":"STARLINK-35797","alt_names":[],"object_type":"PAYLOAD","status":"ACTIVE","operator":null,"country":"US","launch_date":"2025-11-06","launch_site_code":"AFWTR","launch_vehicle":null,"mission":null,"orbit_class":"UNKNOWN","rcs_meters":null,"size_class":null,"mass_kg":null,"dimensions":null,"purposes":["comms"],"wikipedia_slug":null,"has_3d_model":false,"image_url":null,"decayed_at":null,"tle_current":{"epoch":"2026-05-24T18:54:18.929376Z","epoch_age_seconds":94228,"freshness":"FRESH","line1":"1 66364U 25254S   26144.78771909  .00013194  00000+0  45668-3 0  9997","line2":"2 66364  53.1581 239.1964 0001060  63.0823 297.0286 15.30207797 30629","mean_motion":15.30207797,"eccentricity":0.000106,"inclination_deg":53.1581,"raan_deg":239.1964,"arg_perigee_deg":63.0823,"mean_anomaly_deg":297.0286,"bstar":0.00045668,"rev_number":3062,"period_min":94.104866203345,"perigee_km":474.46533622995,"apogee_km":475.91824193324,"semimajor_km":6853.3287890816,"source":"CELESTRAK","updated_at":"2026-05-25T13:38:21.177364Z"}}}